Weather in Volokonovka

Russia / Belgorod Oblast     51°02′59″N   37°51′42″E
temp.,
°C
wind,
m/s
gust,
m/s
humid.,
%
clouds,
%
prec.,
mm/h
press.,
hPa
HPBL,
m
14 may, fri
fri1400:00+12ese229098 0.1 101516
03:00+12e229374 0.7 101522
06:00+12ese3893100 0.1 1014175
09:00+18se6107699 0.1 1013482
12:00+21se71370100 0.0 10121224
15:00+22se71267100 0.3 1011847
18:00+21se61374100 0.1 1010747
21:00+17se4118673 0.1 1010202
15 may, sat
sat1500:00+16s359298 0.0 101084
03:00+15wsw119322 0.0 101011
06:00+15ssw2386100 0.1 101161
09:00+18sw4674100 0.1 1012386
12:00+22sw575485 0.0 10131299
15:00+22ssw5851100 0.0 10131872
18:00+21ssw47635 0.0 1013397
21:00+16s127674 0.0 101411
16 may, sun
sun1600:00+17s2269100 0.0 101434
03:00+15s1171100 0.0 101411
06:00+15ese12762 0.0 101416
09:00+20se23630 0.0 1014445
12:00+24se224916 0.0 10141515
15:00+25e2245100 0.0 10131734
18:00+23ene346356 0.0 1012181
21:00+18ne4781100 0.3 1011107
17 may, mon
mon1700:00+16ene348959 0.0 101149
03:00+15ene3481100 0.0 101064
06:00+15e3885100 0.0 1009160
09:00+22se5115524 0.0 1009451
12:00+25se712472 0.0 1009977
15:00+26ese81451100 0.0 10071945
18:00+23se51162100 0.0 1007412
21:00+19se337969 0.0 100841
18 may, tue
tue1800:00+17se3481100 0.0 100752
03:00+15sse22861 0.0 100715
06:00+16sse118630 0.0 100738
09:00+21s4678100 0.0 1008531
12:00+21ssw5781100 0.3 1009670
15:00+21sw467379 2.2 1009925
18:00+21wsw34719 0.4 1009725
21:00+17wnw118423 1.1 101011